Regional Weather Roundup
Issued by NWS

Home | Current Version | Previous Version | Graphics & Text | Print | Product List | Glossary On
Versions: 1 2 3 4 5 6 7 8 9 10 11 12 13 14 15 16 17 18 19 20 21 22 23 24 25 26 27 28 29 30 31 32 33 34 35 36 37 38 39 40 41 42 43 44 45 46 47 48 49 50
000
ASUS43 KLMK 262210
RWRKY
KENTUCKY REGIONAL WEATHER ROUNDUP
NATIONAL WEATHER SERVICE LOUISVILLE KY
600 PM EDT SUN APR 26 2015

NOTE "FAIR" INDICATES FEW OR NO CLOUDS BELOW 12,000 FEET
WITH NO SIGNIFICANT WEATHER AND/OR OBSTRUCTIONS TO VISIBILITY.

KYZ001>023-026-027-061>063-070>075-262300-
WESTERN AND SOUTH CENTRAL KENTUCKY

CITY           SKY/WX    TMP DP  RH WIND       PRES   REMARKS
PADUCAH        SUNNY     65  43  44 NE9       29.85S
HENDERSON      SUNNY     63  36  36 N7        29.86R
OWENSBORO      SUNNY     63  35  35 N14       29.86R
HOPKINSVILLE   CLOUDY    60  46  59 NW6       29.84S
BOWLING GREEN  PTSUNNY   65  41  41 N6        29.83R
GLASGOW        CLOUDY    61  40  46 NE6       29.82R
$$

KYZ024-025-028>034-038-045-046-053-262300-
NORTH CENTRAL KENTUCKY

CITY           SKY/WX    TMP DP  RH WIND       PRES   REMARKS
LOUISVILLE/SDF MOSUNNY   63  33  32 N13G20    29.84R
LOUISVILLE/LOU SUNNY     63  34  33 N9G17     29.84R
FORT KNOX      SUNNY     62  35  36 N10       29.82R
$$

KYZ035>037-039>044-047>052-055>060-089>105-262300-
NORTHEAST KENTUCKY

CITY           SKY/WX    TMP DP  RH WIND       PRES   REMARKS
LEXINGTON      SUNNY     61  38  42 N12       29.81R
COVINGTON      MOSUNNY   59  35  40 N12G20    29.84R
FRANKFORT      SUNNY     62  31  31 N9G20     29.81S
$$

KYZ054-064>069-076>088-106>120-262300-
SOUTHEAST KENTUCKY

CITY           SKY/WX    TMP DP  RH WIND       PRES   REMARKS
JACKSON        MOSUNNY   62  32  32 VRB5      29.76S
LONDON         MOSUNNY   61  37  41 N9        29.78S
SOMERSET       MOSUNNY   59  39  47 N8        29.81S
MIDDLESBORO    CLOUDY    55  46  70 CALM      29.79R
MONTICELLO     CLEAR     63  43  48 NW9       29.83R
$$



USA.gov is the U.S. government's official web portal to all federal, state and local government web resources and services.